Location: College Park
(38.9810°N, 76.9370°W)
Time: 17:31:58
(UTC-05:00)

N. Korean satellite - Pass Details

Date: 15 February 2018
Orbit: 459 x 514 km, 97.2° (Epoch: 21 February)

Event Time Altitude Azimuth Distance (km) Brightness Sun altitude
Rises 05:52:34 0° 31° (NNE) 2,557 10.6 -13.5°
Reaches altitude 10° 05:55:16 10° 53° (NE) 1,683 10.0 -13.0°
Maximum altitude 05:57:35 16° 94° (E) 1,345 10.1 -12.6°
Drops below altitude 10° 05:59:56 10° 134° (SE) 1,694 10.1 -12.1°
Sets 06:02:39 0° 156° (SSE) 2,583 10.7 -11.6°
